Temperature
16 16 16 16 16 16 17 17 17 17 17 17 17 17 17 17 17 17 17 16 16 16 16 16 16 16 16 16 16 16 16 16 16 16 16 16 15 16 16 15 15 15 15
16 16 16 16 16 16 16 17 17 17 17 17 17 17 17 17 17 17 16 16 16 16 16 16 16 16 16 16 16 16 16 16 16 16 16 15 15 15 15 15 15 15 15
16 16 16 16 16 16 16 16 17 17 17 17 17 17 17 17 17 16 16 16 16 16 16 16 16 16 16 16 16 16 16 16 16 15 15 15 15 15 15 15 15 15 15
15 15 16 16 16 16 16 16 16 16 16 16 16 16 16 16 16 16 16 16 16 16 16 16 16 16 16 16 16 16 16 16 16 15 15 15 15 15 15 15 15 15 15
15 15 15 15 16 16 16 16 16 16 16 16 16 16 16 16 16 16 16 16 16 16 16 16 16 16 16 16 16 16 15 15 15 15 15 15 15 15 15 15 15 15 15
15 15 15 15 15 15 16 16 16 16 16 16 16 16 16 16 16 16 16 16 16 16 16 15 16 16 16 16 15 15 15 15 15 15 15 15 15 15 15 15 15 15 15
15 15 15 15 15 15 15 15 16 16 16 16 16 16 15 15 16 16 16 16 16 15 15 15 15 15 16 15 15 15 15 15 15 15 15 15 15 14 14 14 15 15 15
14 14 15 15 15 15 15 15 15 15 15 15 15 15 15 15 15 15 15 15 15 15 15 15 15 15 15 15 15 15 15 15 15 15 15 15 14 14 14 14 14 14 14
14 14 14 14 14 14 15 15 15 15 15 15 15 15 15 15 15 15 15 15 15 15 15 15 15 15 15 15 15 15 15 15 15 15 14 14 14 14 14 14 14 14 14
14 14 14 14 14 14 14 14 14 15 15 15 15 15 15 15 15 15 15 15 15 15 15 15 15 15 15 15 15 15 15 15 14 14 14 14 14 14 14 14 14 14 14
13 14 13 14 14 14 14 14 14 14 14 14 15 15 15 15 15 15 15 15 15 15 15 15 15 15 15 15 15 15 14 14 14 14 14 14 14 14 14 14 14 14 14
13 13 13 13 13 13 13 13 14 14 14 14 14 14 14 14 14 15 15 15 15 15 15 15 15 15 14 15 15 14 14 14 14 14 14 14 14 14 14 14 14 14 14
12 13 13 13 13 13 13 13 13 13 13 14 14 14 14 14 14 14 14 14 14 14 14 14 14 14 14 14 14 14 14 14 14 14 14 14 14 14 14 14 14 14 14
12 12 12 12 12 12 12 13 13 13 13 13 13 13 13 14 14 14 14 14 14 14 14 14 14 14 14 14 14 14 14 14 14 14 14 14 14 14 14 14 14 14 13
12 12 12 12 12 12 12 12 12 12 13 13 13 13 13 13 13 13 14 14 14 14 14 14 14 14 14 14 14 14 14 14 14 14 14 14 14 14 13 13 13 13 13
11 11 11 11 11 11 11 11 12 12 12 12 12 12 12 12 12 13 13 13 13 13 13 13 14 14 14 14 14 14 14 14 14 14 14 13 14 13 13 13 13 13 13
10 10 10 10 10 11 11 11 11 11 11 11 12 12 12 12 12 12 12 12 13 13 13 13 13 13 13 13 14 14 14 14 14 14 13 13 13 13 13 13 13 13 13
10 10 10 10 10 10 10 10 10 10 11 11 11 11 11 11 11 11 11 12 12 12 12 12 13 13 13 13 13 13 13 13 13 13 13 13 13 13 13 13 13 12 12
9 9 9 9 9 10 10 10 10 10 10 10 10 10 11 11 11 11 11 11 11 11 12 12 12 12 12 12 13 13 13 13 13 13 13 13 13 13 13 13 13 12 12
9 9 9 9 9 9 9 9 9 9 9 9 10 10 10 10 10 10 10 10 11 11 11 11 11 11 12 12 12 12 12 12 12 12 13 13 13 13 13 12 12 12 12
8 8 8 8 8 8 8 8 9 9 9 9 9 9 9 9 9 9 10 10 10 10 10 10 11 11 11 11 11 11 12 12 12 12 12 12 12 12 12 12 12 12 12
8 8 8 8 8 8 8 8 8 8 8 8 8 8 8 9 9 9 9 9 9 9 10 10 10 10 10 11 10 10 10 11 11 12 12 12 12 12 12 12 12 12 11
7 7 7 7 7 7 7 7 7 7 7 8 8 8 8 8 8 8 8 8 9 9 9 9 9 9 10 10 10 10 10 10 10 10 11 11 11 11 11 11 11 11 11
7 6 6 6 6 6 6 7 7 7 7 7 7 7 7 7 7 7 8 8 8 8 8 9 9 9 9 9 9 9 9 9 9 9 10 10 10 10 10 10 10 10 10
6 6 6 6 6 6 6 6 6 6 6 6 6 6 7 7 7 7 7 7 7 8 8 8 8 8 8 8 8 9 9 9 9 8 8 9 9 9 9 9 10 10 10
6 5 5 5 6 6 6 6 5 6 6 6 6 6 6 6 6 7 7 7 7 7 7 7 7 8 8 8 8 8 8 8 8 8 8 8 8 9 9 9 9 9 9
Wind_Speed
2 3 1 4 6 7 7 8 8 8 9 10 10 10 10 11 11 11 11 10 10 9 9 9 10 10 10 11 11 12 11 12 12 12 12 12 12 12 12 12 12 12 13
2 2 2 4 5 6 7 7 7 7 7 8 8 9 9 9 10 10 10 9 9 9 9 9 9 9 10 11 11 11 11 12 12 12 12 11 11 11 11 11 11 10 11
1 2 3 5 5 6 6 6 6 6 6 6 6 7 7 7 8 8 8 8 8 8 8 8 9 9 10 10 11 11 11 11 11 11 10 9 8 10 10 10 10 11 11
3 4 4 6 6 6 5 5 5 5 4 4 5 5 6 6 7 7 7 7 7 8 8 7 8 9 10 10 10 10 11 10 10 9 8 7 6 9 9 9 10 10 9
6 6 5 6 6 5 5 4 4 3 3 3 3 3 4 5 6 6 6 6 7 7 7 7 8 9 10 10 10 10 10 9 8 8 6 5 4 7 8 8 8 8 8
6 7 6 6 6 5 4 3 2 2 1 1 1 2 3 3 4 5 5 6 7 7 7 7 8 10 10 10 10 10 9 9 8 7 5 4 4 6 7 8 7 7 7
5 7 8 8 6 6 4 3 2 1 1 0 1 1 2 3 4 4 5 5 6 7 8 8 8 9 10 10 10 10 10 9 8 7 5 4 5 6 7 7 7 7 7
4 6 7 8 8 7 6 5 3 2 2 2 2 2 2 3 3 4 5 5 7 7 8 9 9 9 10 10 10 10 10 10 8 7 6 6 6 6 7 7 7 7 6
6 6 7 7 7 7 6 5 5 4 3 3 3 3 3 3 3 4 5 6 7 7 7 8 9 10 10 10 10 10 11 11 9 7 6 7 7 7 8 8 7 7 6
6 6 6 7 7 6 6 6 6 5 5 5 4 4 4 4 4 4 5 6 7 8 8 8 9 10 10 10 11 11 11 11 9 8 7 8 9 8 8 8 8 7 7
6 6 6 6 7 7 6 6 6 6 6 5 5 5 4 4 4 4 5 6 7 8 9 9 8 8 9 10 10 11 11 9 9 8 8 9 10 10 10 9 9 8 8
6 6 5 5 6 6 6 6 6 5 6 5 5 5 4 4 4 4 5 6 7 8 9 9 9 8 7 7 9 10 8 9 9 8 9 11 11 12 11 10 10 10 9
3 4 5 5 5 5 5 5 4 5 5 5 5 5 4 3 3 3 2 4 5 6 6 7 7 6 6 6 6 7 8 8 8 8 9 11 12 13 12 12 12 11 11
4 5 5 5 5 5 5 4 4 3 3 3 5 5 3 1 1 1 1 3 3 4 4 4 4 5 6 7 7 7 7 7 8 9 10 12 13 13 13 13 12 12 12
4 5 5 5 4 4 4 4 3 3 3 4 5 5 4 2 2 2 2 2 3 4 3 3 4 5 5 5 6 6 7 8 9 9 10 12 13 14 14 14 13 13 13
4 5 5 5 4 4 3 3 3 4 4 4 4 5 5 3 3 3 3 3 3 4 4 4 5 5 5 4 5 6 7 8 8 9 10 11 13 14 15 15 15 14 13
5 5 6 6 5 4 4 4 4 4 4 3 4 5 4 4 3 3 3 3 3 4 4 4 4 4 4 5 6 6 5 7 7 9 10 10 11 14 15 15 15 14 14
5 6 6 6 6 5 4 4 4 4 3 3 4 4 4 4 3 3 3 3 4 4 3 4 4 4 5 5 5 5 5 5 7 8 9 9 10 10 12 14 14 14 14
4 5 6 6 6 6 5 4 4 4 3 4 4 4 4 4 3 2 3 3 3 3 3 4 4 4 5 5 6 5 5 5 6 6 7 8 9 9 10 11 13 13 13
5 5 5 6 6 6 4 4 3 3 3 3 3 4 4 3 3 2 2 2 2 2 3 3 4 4 4 4 5 5 5 6 5 6 7 6 7 9 9 9 9 9 10
6 6 7 6 7 5 4 3 3 3 3 3 3 4 4 3 3 2 2 2 2 3 3 4 4 4 4 3 3 3 3 5 6 6 5 5 5 7 7 8 8 7 7
5 6 6 6 7 6 4 4 3 3 3 3 3 4 4 4 3 2 2 2 2 2 3 3 3 3 3 3 3 2 2 3 4 5 5 6 6 4 5 6 7 6 6
6 6 6 7 7 6 6 4 3 3 3 3 3 3 4 4 3 2 2 2 2 2 3 3 3 4 4 3 3 3 3 4 1 2 4 4 5 4 5 4 5 6 7
5 6 6 6 6 6 6 4 3 3 4 4 4 4 4 4 3 3 2 2 2 2 3 3 3 3 4 4 3 3 2 2 2 2 2 3 4 4 5 4 4 5 5
5 5 5 6 6 6 6 4 3 3 4 4 4 4 4 3 3 3 2 2 2 2 3 3 2 3 3 4 4 2 2 2 2 3 4 3 3 3 4 4 4 4 5
4 4 5 5 6 6 6 5 4 4 5 5 5 4 4 3 3 3 3 2 2 3 3 3 3 3 3 4 4 3 3 3 3 3 4 4 4 3 3 3 4 4 4
Wind_Direction
308 308 45 97 106 109 111 115 112 113 117 117 120 123 127 132 134 139 139 137 135 132 127 125 126 123 121 120 118 115 111 108 105 103 101 101 102 101 99 94 90 88 91
253 312 76 97 105 104 104 109 112 113 116 121 125 128 132 135 141 143 147 146 143 141 137 134 132 130 126 123 120 118 115 112 108 106 102 102 106 107 105 102 99 97 95
23 25 74 86 96 99 97 100 108 113 114 120 129 137 141 145 148 152 153 155 153 151 147 144 141 137 132 129 127 125 123 119 116 112 108 108 112 114 111 110 109 103 100
45 44 67 79 87 91 91 92 98 108 116 123 130 142 151 157 159 161 163 160 160 158 157 155 148 145 142 139 138 135 131 127 123 118 113 113 119 122 120 117 112 108 105
44 41 55 73 79 85 83 83 85 94 101 120 144 153 161 168 169 167 173 172 166 162 165 164 159 157 153 151 149 145 142 136 131 127 125 126 132 135 130 125 118 115 111
42 38 48 62 62 67 72 70 72 78 90 114 154 194 193 188 190 184 179 176 175 173 174 173 170 168 163 162 161 156 154 148 141 140 142 150 161 154 144 138 134 129 123
48 38 45 48 44 44 45 43 34 22 0 317 271 257 236 221 213 206 197 185 181 185 188 186 180 176 174 173 173 168 164 158 153 156 164 173 188 176 159 152 153 148 140
57 37 39 40 38 33 27 22 12 351 326 306 293 278 275 259 241 230 215 206 197 195 198 196 193 189 185 184 182 176 170 165 166 170 183 194 203 194 179 171 170 165 159
41 36 28 25 25 22 14 5 359 351 331 309 294 285 283 279 265 250 231 217 211 207 207 206 204 201 199 195 190 183 178 175 174 184 193 205 213 207 193 184 180 177 176
34 29 22 18 16 12 2 354 350 343 334 324 304 285 275 272 265 259 244 230 223 217 212 212 213 211 207 203 196 189 183 180 183 191 200 210 215 211 205 197 193 193 190
19 14 14 11 8 4 358 352 346 337 331 323 311 291 275 267 259 255 250 242 235 227 219 215 216 216 212 207 200 195 186 184 186 196 206 214 217 217 216 211 206 206 205
359 355 3 1 359 355 351 349 341 335 327 321 311 299 282 270 259 254 256 250 243 234 227 220 220 218 211 203 202 199 191 191 192 203 213 217 220 222 221 218 214 213 214
338 343 345 346 348 350 347 342 338 332 325 319 309 298 288 274 267 259 256 259 251 240 229 225 221 214 205 202 201 201 199 197 203 211 217 219 223 226 225 223 220 218 218
346 337 334 338 342 342 340 335 328 331 326 318 303 293 288 284 266 259 244 249 248 236 226 222 217 216 213 211 209 207 206 206 211 216 222 222 224 227 229 226 224 223 224
337 331 329 331 332 336 338 332 334 324 315 305 300 289 273 262 251 250 249 241 243 240 224 222 222 223 222 219 215 216 216 215 215 215 221 223 224 228 232 231 230 230 227
331 325 324 327 327 331 327 319 316 318 310 307 303 289 271 256 252 248 246 243 242 238 234 228 227 225 226 223 224 225 226 222 220 219 222 226 227 228 233 234 232 231 230
321 322 324 324 332 328 318 314 321 316 315 314 306 295 283 267 255 247 245 246 244 238 236 234 232 228 227 226 231 231 230 225 222 222 224 227 229 228 228 232 232 230 230
326 327 325 332 332 325 320 315 318 321 323 320 315 312 301 287 272 258 245 246 249 240 230 231 226 229 232 228 232 234 230 227 227 225 223 223 222 222 225 229 232 231 231
333 331 331 333 332 327 324 322 317 321 323 325 325 325 315 306 295 280 259 258 249 238 235 237 235 224 234 233 231 232 230 225 228 227 222 218 216 218 220 225 228 231 230
348 343 339 338 336 332 330 325 321 325 326 335 334 329 322 321 316 309 278 282 272 243 240 235 241 234 233 235 237 236 233 232 224 221 222 221 219 217 216 216 220 226 229
352 353 346 342 339 342 336 329 322 319 321 325 329 336 333 328 323 314 278 276 270 250 245 240 241 245 241 235 237 244 247 234 224 220 219 216 214 214 212 211 212 217 225
344 344 344 343 338 337 327 312 292 289 296 303 317 335 339 337 335 305 266 253 257 253 252 246 241 245 243 218 212 207 235 256 236 224 217 213 213 208 212 215 208 208 212
341 339 339 336 335 335 329 321 318 321 317 319 326 325 335 338 330 315 286 263 257 242 248 246 235 233 242 233 216 207 202 225 250 239 225 219 215 211 211 209 206 208 209
324 330 334 334 336 334 334 330 321 315 302 301 308 307 317 327 321 309 295 277 263 256 256 251 242 236 236 239 234 227 230 198 211 248 244 232 227 219 214 213 210 210 212
323 330 333 336 337 337 337 332 321 309 298 300 310 315 318 317 316 313 300 276 260 257 256 253 250 240 237 237 235 227 231 261 235 228 246 238 242 228 226 219 215 210 220
327 330 334 341 337 337 341 338 324 307 304 308 312 314 313 310 308 318 305 289 271 262 257 252 242 240 242 239 237 232 216 212 219 232 240 239 249 245 233 221 220 220 227
Height
1522 1522 1523 1524 1525 1526 1527 1528 1529 1530 1531 1532 1533 1534 1534 1535 1536 1537 1537 1538 1539 1539 1540 1540 1541 1542 1542 1543 1543 1544 1545 1545 1545 1546 1546 1547 1547 1547 1548 1548 1548 1548 1549
1521 1522 1523 1524 1525 1526 1527 1528 1529 1530 1531 1532 1533 1534 1534 1535 1536 1537 1537 1538 1539 1539 1540 1541 1541 1542 1543 1543 1544 1544 1545 1545 1546 1546 1547 1547 1548 1548 1548 1549 1549 1549 1549
1521 1522 1523 1524 1525 1526 1527 1528 1529 1530 1531 1532 1533 1534 1534 1535 1536 1537 1537 1538 1539 1539 1540 1541 1541 1542 1543 1543 1544 1545 1545 1546 1546 1547 1547 1548 1548 1549 1549 1549 1550 1550 1550
1521 1522 1523 1524 1525 1526 1527 1528 1529 1530 1531 1532 1532 1533 1534 1535 1536 1536 1537 1538 1538 1539 1540 1541 1541 1542 1543 1543 1544 1545 1545 1546 1546 1547 1548 1548 1549 1549 1550 1550 1550 1550 1550
1521 1522 1523 1524 1525 1526 1527 1528 1529 1529 1530 1531 1532 1533 1533 1534 1535 1536 1536 1537 1538 1539 1540 1540 1541 1542 1543 1543 1544 1545 1545 1546 1547 1547 1548 1549 1549 1549 1550 1550 1551 1551 1551
1521 1521 1523 1524 1524 1525 1526 1527 1528 1528 1529 1530 1531 1532 1532 1533 1534 1535 1536 1536 1537 1538 1539 1540 1540 1541 1542 1543 1544 1544 1545 1546 1547 1547 1548 1548 1549 1550 1550 1550 1551 1551 1551
1520 1521 1522 1523 1524 1524 1525 1526 1526 1527 1528 1529 1529 1530 1531 1532 1533 1534 1534 1535 1536 1537 1538 1539 1540 1540 1541 1542 1543 1544 1545 1545 1546 1547 1547 1548 1549 1549 1550 1550 1550 1551 1551
1520 1521 1521 1522 1522 1523 1523 1524 1525 1525 1526 1527 1527 1528 1529 1530 1531 1532 1533 1534 1535 1536 1537 1538 1538 1539 1540 1541 1542 1543 1544 1545 1545 1546 1547 1547 1548 1549 1549 1550 1550 1550 1551
1519 1520 1520 1520 1521 1521 1521 1522 1523 1523 1524 1524 1525 1526 1527 1528 1529 1530 1531 1532 1533 1534 1535 1536 1537 1538 1539 1540 1540 1541 1542 1543 1544 1545 1546 1547 1547 1548 1548 1549 1549 1550 1550
1518 1518 1518 1518 1519 1519 1519 1520 1520 1520 1521 1522 1523 1523 1524 1525 1526 1527 1528 1529 1530 1532 1533 1534 1535 1536 1537 1538 1539 1540 1541 1542 1543 1544 1544 1545 1546 1547 1547 1548 1548 1549 1549
1516 1516 1516 1516 1516 1516 1516 1517 1517 1517 1518 1519 1519 1520 1521 1522 1523 1524 1525 1526 1528 1529 1530 1531 1532 1534 1535 1536 1537 1538 1539 1539 1540 1542 1543 1544 1544 1545 1546 1546 1547 1547 1548
1514 1514 1514 1514 1514 1514 1514 1514 1514 1514 1514 1515 1516 1517 1517 1519 1520 1521 1522 1523 1524 1526 1527 1528 1529 1531 1532 1533 1534 1535 1536 1537 1538 1539 1540 1541 1542 1543 1544 1544 1545 1546 1546
1512 1512 1512 1511 1511 1511 1510 1510 1510 1510 1511 1511 1512 1513 1513 1514 1515 1517 1518 1519 1520 1522 1523 1524 1526 1527 1528 1529 1531 1532 1533 1534 1535 1536 1537 1539 1540 1540 1541 1542 1543 1543 1544
1510 1509 1509 1509 1508 1507 1507 1507 1507 1507 1507 1507 1508 1509 1509 1510 1511 1512 1513 1515 1516 1517 1519 1520 1522 1523 1524 1526 1527 1528 1529 1530 1532 1533 1534 1535 1536 1537 1538 1539 1539 1540 1541
1507 1507 1506 1505 1505 1504 1504 1503 1503 1503 1503 1503 1504 1504 1505 1505 1506 1507 1509 1510 1511 1513 1514 1516 1517 1519 1520 1522 1523 1524 1525 1526 1528 1529 1530 1531 1532 1533 1534 1535 1536 1537 1537
1505 1504 1503 1502 1502 1501 1500 1499 1499 1499 1499 1499 1499 1500 1500 1501 1501 1502 1503 1505 1507 1508 1510 1511 1512 1514 1515 1517 1518 1519 1520 1522 1523 1524 1526 1527 1528 1529 1530 1531 1532 1533 1534
1503 1502 1501 1500 1499 1498 1497 1496 1495 1495 1495 1495 1495 1496 1496 1496 1497 1498 1498 1500 1501 1503 1505 1506 1507 1509 1510 1511 1513 1514 1516 1517 1518 1520 1521 1522 1523 1525 1526 1527 1528 1529 1529
1500 1499 1498 1497 1496 1495 1494 1493 1492 1491 1491 1491 1491 1491 1491 1492 1492 1493 1494 1495 1496 1498 1499 1501 1502 1503 1505 1506 1507 1509 1510 1511 1513 1514 1516 1517 1518 1520 1521 1522 1523 1524 1525
1498 1496 1495 1494 1493 1491 1490 1489 1488 1488 1487 1487 1486 1487 1487 1487 1488 1488 1489 1490 1491 1492 1494 1495 1496 1498 1499 1500 1502 1503 1504 1505 1507 1509 1510 1512 1513 1514 1515 1517 1518 1519 1520
1495 1494 1492 1491 1490 1488 1487 1486 1485 1484 1483 1483 1482 1482 1482 1482 1483 1483 1484 1485 1486 1487 1488 1489 1491 1492 1493 1495 1496 1497 1498 1500 1501 1502 1504 1506 1507 1509 1510 1511 1512 1513 1514
1493 1491 1490 1488 1486 1485 1483 1482 1480 1479 1479 1478 1478 1478 1478 1478 1478 1478 1479 1479 1480 1481 1482 1484 1485 1487 1488 1489 1490 1491 1492 1493 1494 1496 1498 1500 1501 1502 1504 1505 1506 1507 1508
1491 1489 1487 1485 1484 1482 1480 1478 1477 1476 1475 1474 1474 1473 1473 1473 1473 1474 1474 1474 1475 1476 1477 1478 1480 1481 1482 1484 1485 1485 1485 1487 1487 1489 1491 1493 1495 1496 1497 1499 1500 1501 1502
1488 1487 1485 1483 1481 1479 1477 1475 1474 1472 1471 1470 1469 1469 1468 1468 1468 1469 1469 1469 1470 1471 1471 1472 1474 1475 1476 1478 1480 1481 1481 1480 1481 1483 1485 1487 1488 1489 1490 1492 1493 1494 1495
1486 1484 1483 1481 1479 1477 1475 1472 1471 1469 1467 1466 1465 1464 1464 1464 1463 1463 1464 1464 1465 1465 1466 1467 1468 1470 1471 1472 1474 1475 1476 1476 1477 1477 1478 1480 1482 1482 1484 1485 1486 1487 1488
1484 1482 1480 1478 1476 1474 1472 1470 1468 1466 1464 1463 1462 1460 1459 1459 1459 1458 1459 1459 1459 1460 1461 1462 1463 1464 1466 1467 1468 1469 1470 1471 1471 1472 1472 1474 1476 1477 1478 1479 1480 1480 1481
1482 1480 1478 1476 1474 1472 1470 1468 1465 1463 1461 1460 1458 1457 1456 1454 1454 1454 1454 1454 1454 1455 1456 1456 1458 1459 1460 1462 1463 1464 1464 1465 1466 1467 1467 1468 1469 1470 1472 1472 1473 1474 1474